Date,TemperatureHighF,TemperatureAvgF,TemperatureLowF,DewpointHighF,DewpointAvgF,DewpointLowF,HumidityHigh,HumidityAvg,HumidityLow,PressureMaxIn,PressureMinIn,WindSpeedMaxMPH,WindSpeedAvgMPH,GustSpeedMaxMPH,PrecipitationSumIn
2013-1-1,23.2,17.0,9.0,0.0,-11.7,-20.6,27,19,22,29.59,29.44,22,8,22,0.00
2013-1-2,31.3,15.0,9.3,0.0,-10.9,-20.2,34,19,20,29.56,29.44,17,6,17,0.00
2013-1-3,33.3,22.3,16.3,0.0,-1.8,-9.4,35,8,20,29.68,29.44,31,11,31,0.00
2013-1-4,37.2,22.3,12.2,3.2,-4.7,-10.2,42,31,20,29.65,29.56,63,9,63,0.00
2013-1-5,35.4,28.2,19.8,13.0,4.7,-2.4,40,34,22,29.62,29.47,21,5,21,0.00
2013-1-6,32.4,23.3,16.5,5.0,-0.7,-5.7,47,30,23,29.77,29.38,28,9,28,0.00
2013-1-7,38.1,17.8,14.4,5.0,-1.8,-3.6,45,38,21,29.77,29.56,20,7,20,0.00
2013-1-8,46.8,31.6,26.1,9.2,7.0,3.0,42,36,19,29.65,29.53,25,10,26,0.00
2013-1-9,82.4,38.2,24.1,13.0,5.8,-4.5,42,25,19,30.03,29.53,31,8,31,0.00
2013-1-10,82.4,39.9,23.0,42.7,12.2,0.0,82,35,20,30.00,29.41,22,6,22,0.00
2013-1-11,54.5,51.4,48.4,48.1,36.2,26.4,82,59,35,29.41,29.23,30,12,30,0.00
2013-1-12,51.8,44.2,29.5,27.0,15.6,0.0,38,30,24,29.65,29.35,63,9,63,0.00
2013-1-13,29.8,21.2,14.9,8.4,-3.4,-13.6,43,33,26,29.94,29.53,26,10,26,0.00
2013-1-14,27.5,14.5,12.2,0.0,-10.7,-15.4,44,28,21,30.15,29.91,15,5,15,0.00
2013-1-15,29.5,18.3,11.5,1.9,-4.7,-8.8,46,32,20,30.18,29.88,12,1,12,0.00
2013-1-16,35.6,25.6,15.6,0.9,-1.2,-2.6,46,33,22,29.88,29.68,25,5,25,0.00
2013-1-17,34.5,27.9,20.1,14.6,-1.4,-11.1,46,28,20,30.24,29.85,26,7,26,0.00
2013-1-18,41.0,25.8,20.1,6.3,1.0,-3.1,35,20,21,30.27,29.80,34,11,34,0.00
2013-1-19,52.5,40.0,27.3,10.7,4.6,-7.4,27,19,18,29.91,29.65,46,12,46,0.00
2013-1-20,27.1,18.9,16.2,-7.6,-13.4,-15.1,23,22,21,30.21,29.91,39,12,39,0.00
2013-1-21,19.6,9.3,4.5,0.0,-20.1,-24.5,24,24,22,30.24,30.06,26,15,30,0.00
2013-1-22,4.5,0.8,-0.6,0.0,-10.7,-28.7,24,10,24,30.33,30.21,30,10,30,0.00
2013-1-23,23.7,12.8,-0.6,0.0,-16.6,-20.2,24,23,22,30.30,30.06,38,6,38,0.00
2013-1-24,12.2,11.1,10.9,0.0,-9.7,-18.9,24,13,24,30.56,30.27,26,10,26,0.00
2013-1-25,34.5,16.1,11.1,0.0,-2.4,-12.8,27,7,20,30.27,29.97,72,9,72,0.00
2013-1-26,31.1,18.4,8.6,0.0,-11.3,-20.8,25,21,20,30.39,30.15,16,5,17,0.00
2013-1-27,43.3,24.5,23.0,37.7,-2.9,-7.6,81,26,25,30.36,29.88,22,10,22,0.00
2013-1-28,55.9,49.0,43.2,50.2,39.5,25.4,82,71,39,29.97,29.80,22,7,22,0.00
2013-1-29,65.1,60.1,52.5,53.4,43.1,32.0,81,55,33,29.80,29.44,26,10,26,0.00
2013-1-30,52.5,36.3,20.8,46.5,20.5,-5.7,81,55,30,29.74,29.29,37,12,37,0.00
2013-1-31,20.8,13.4,8.8,0.0,-13.7,-20.8,30,22,24,30.24,29.74,35,18,35,0.00
2013-2-1,17.4,11.1,8.8,0.0,-5.3,-15.3,24,8,23,30.45,30.21,30,11,30,0.00
2013-2-2,22.3,15.7,7.2,0.0,-8.4,-22.0,33,16,24,30.24,30.06,26,8,26,0.00
2013-2-3,26.4,13.8,8.4,0.0,-13.1,-20.9,27,20,21,30.12,30.00,29,6,29,0.00
2013-2-4,36.0,24.3,16.0,0.8,-4.3,-6.1,41,27,22,30.06,29.88,134,8,134,0.00
2013-2-5,35.1,24.9,13.1,2.8,-3.2,-10.3,36,29,22,30.15,29.91,22,6,22,0.00
2013-2-6,44.2,30.9,21.7,7.3,2.4,-6.0,41,20,20,30.30,30.12,21,6,21,0.00
2013-2-7,140.0,75.0,33.3,30.6,6.5,0.0,79,22,27,30.15,29.94,63,5,63,0.00
2013-2-8,33.4,26.8,24.1,12.8,1.4,-2.6,42,20,25,30.45,30.06,0,0,0,0.00
2013-2-9,34.9,33.4,32.7,7.2,6.7,5.2,33,32,30,30.27,30.12,22,10,22,0.00
2013-2-10,34.7,34.7,34.7,6.4,6.4,6.4,30,30,30,30.12,29.68,39,17,39,0.00
2013-2-11,34.7,34.7,34.7,6.4,6.4,6.4,30,30,30,29.68,29.68,22,22,25,0.00
2013-2-12,34.7,34.7,34.7,6.4,6.4,6.4,30,30,30,29.68,29.68,22,22,25,0.00
2013-2-13,34.7,34.7,34.7,6.4,6.4,6.4,30,30,30,29.68,29.68,22,22,25,0.00
2013-2-24,42.3,27.0,14.4,9.1,0.7,-4.1,45,32,21,30.27,30.12,12,1,12,0.00
2013-2-25,40.6,29.4,24.8,12.6,3.3,0.0,55,17,21,30.33,30.06,72,6,72,0.00
2013-2-26,36.0,34.5,33.8,5.7,4.9,0.0,30,26,25,30.06,29.68,38,15,38,0.00
2013-2-27,33.8,33.8,33.8,0.0,0.0,0.0,0,0,100,29.74,29.74,0,0,0,0.00
2013-2-28,38.1,35.8,35.4,5.1,4.2,1.0,27,26,21,30.27,30.18,26,11,26,0.00
2013-3-1,29.5,27.1,25.3,-0.9,-4.2,-5.7,31,25,23,30.47,30.30,26,13,26,0.00
2013-3-2,29.5,24.0,14.2,0.0,-5.0,-14.2,34,19,21,30.50,30.45,25,9,25,0.00
2013-3-3,35.2,21.2,12.7,0.0,-5.9,-13.1,44,25,20,30.50,30.45,15,3,15,0.00
2013-3-4,24.4,24.0,20.5,0.0,-0.4,-4.7,33,5,32,30.50,30.39,26,11,26,0.00
2013-3-5,36.1,29.8,24.3,16.2,2.5,0.0,44,7,43,30.59,30.33,28,8,30,0.00
2013-3-6,36.0,34.6,31.1,0.3,-0.1,-1.9,25,7,25,31.01,30.59,35,12,35,0.00
2013-3-7,44.4,33.0,21.6,7.5,2.6,-4.7,50,29,20,31.01,31.01,13,2,13,0.00
2013-3-8,43.5,28.4,16.7,9.1,3.4,-2.9,50,30,20,31.01,31.01,17,5,17,0.00
2013-3-9,37.4,35.2,32.5,8.8,4.7,0.0,36,19,29,31.01,30.95,21,12,21,0.00
2013-3-10,50.9,45.8,37.4,42.7,34.3,0.0,81,65,36,31.01,30.83,29,6,29,0.00
2013-3-11,86.0,41.4,36.1,42.1,25.3,0.0,82,60,34,31.01,30.89,28,8,28,0.00
2013-3-12,39.9,31.1,26.8,12.0,2.3,-4.5,42,29,21,31.01,31.01,34,14,37,0.00
2013-3-13,32.2,26.7,24.4,-1.2,-5.5,-8.2,32,24,20,31.01,31.01,28,11,28,0.00
2013-3-14,36.5,28.1,21.7,12.9,3.7,-2.8,41,35,30,31.01,31.01,17,4,17,0.00
2013-3-15,50.4,37.3,30.7,31.8,12.4,0.0,76,34,19,31.01,31.01,19,3,19,0.00
2013-3-16,140.0,99.1,33.8,32.2,6.2,0.0,78,19,30,31.01,31.01,26,11,26,0.00
2013-3-17,33.8,33.8,33.8,5.7,5.7,5.7,30,30,30,31.01,31.01,11,11,12,0.00
2013-3-18,33.8,31.6,24.4,5.7,2.5,-7.2,30,28,23,31.01,31.01,35,13,35,0.00
2013-3-19,35.2,24.1,21.9,0.0,-9.5,-11.1,24,21,20,31.01,31.01,45,18,45,0.00
2013-3-20,27.9,21.4,14.0,0.0,-9.2,-16.1,25,18,21,31.01,31.01,34,16,34,0.00
2013-3-21,34.2,20.4,12.2,0.0,-8.7,-15.4,27,18,20,31.01,31.01,21,6,21,0.00
2013-3-22,20.3,20.0,19.4,0.4,-4.5,-10.1,42,34,25,31.01,31.01,0,0,0,0.00
2013-3-31,61.7,51.3,19.8,15.4,9.9,0.4,42,19,16,31.01,31.01,34,16,34,0.00
2013-4-1,40.5,34.3,29.5,3.3,-2.2,-6.8,22,20,19,31.01,31.01,30,11,30,0.00
2013-4-2,45.1,31.4,20.7,6.3,-1.7,-9.4,34,15,19,31.01,31.01,26,6,26,0.00
2013-4-3,54.5,33.2,23.7,11.1,-2.0,-7.8,24,22,18,31.01,31.01,21,5,21,0.00
2013-4-4,57.6,39.4,23.9,13.1,2.9,-9.4,24,16,17,31.01,31.01,17,4,17,0.00
2013-4-5,56.7,41.8,34.5,12.5,4.8,-1.2,26,16,17,31.01,31.01,26,10,26,0.00
2013-4-6,67.3,38.5,34.5,22.1,1.3,-1.2,28,21,15,31.01,31.01,43,15,43,0.00
2013-4-7,69.8,49.9,42.8,22.3,17.2,5.7,40,28,15,31.01,31.01,27,9,27,0.00
2013-4-8,43.0,43.0,43.0,9.6,9.6,9.6,25,25,25,31.01,31.01,17,10,17,0.00
2013-4-9,43.0,43.0,43.0,9.6,9.6,9.6,25,25,25,31.01,31.01,6,6,6,0.00
2013-4-10,44.6,43.4,43.0,35.8,17.1,9.6,72,38,25,31.01,31.01,26,9,26,0.00
2013-4-11,52.9,45.8,39.9,40.8,28.8,10.2,77,53,29,31.01,31.01,36,10,36,0.00
2013-4-12,42.6,41.1,39.9,18.3,6.3,0.0,38,16,31,31.01,31.01,0,0,0,0.00
2013-4-13,48.0,42.1,37.0,7.4,0.6,0.0,22,3,19,31.01,31.01,0,0,0,0.00
2013-4-14,72.9,51.8,44.8,20.9,9.8,6.2,20,18,14,31.01,31.01,33,9,33,0.00
2013-4-15,65.3,55.3,47.3,35.7,23.9,14.6,47,30,16,31.01,31.01,34,9,34,0.04
2013-4-16,54.5,47.8,43.7,25.1,14.0,7.9,41,26,18,31.01,31.01,20,8,20,0.00
2013-4-17,56.1,45.8,43.0,50.0,17.1,8.6,81,34,22,31.01,17.72,31,13,31,0.04
2013-4-18,58.8,53.8,47.3,52.5,43.8,16.7,80,71,29,17.72,17.72,37,12,37,0.00
2013-4-19,36.7,36.7,36.5,8.0,7.4,5.7,30,29,27,17.72,17.72,26,14,26,0.00
2013-4-20,48.0,39.7,33.8,9.2,6.5,1.0,33,25,19,17.72,17.72,18,6,18,0.00
2013-4-21,54.9,37.7,33.8,12.2,6.7,6.0,31,27,18,17.72,17.72,134,11,134,0.00
2013-4-22,67.8,49.5,37.4,18.5,12.2,4.4,32,23,15,17.72,17.72,25,9,25,0.00
2013-4-23,86.2,48.9,40.8,36.8,25.3,0.0,64,41,17,17.72,17.72,26,8,26,0.04
2013-4-24,68.0,52.0,32.0,23.3,6.2,0.0,49,16,19,17.72,17.72,134,8,134,0.00
2013-4-25,38.8,38.7,38.7,9.9,9.9,9.9,30,30,30,17.72,17.72,14,7,14,0.00
2013-5-28,72.7,68.4,66.0,58.1,52.8,47.1,65,58,46,29.09,29.06,26,6,26,0.87
2013-5-31,72.7,72.0,70.7,54.1,49.2,40.1,54,45,34,29.00,28.97,13,6,13,0.87
2013-6-1,75.6,67.9,63.0,54.4,38.1,30.5,65,35,21,29.03,28.97,22,5,22,0.87
2013-6-2,63.7,60.5,56.3,38.8,27.9,15.3,41,30,19,29.26,29.00,15,5,15,0.87
2013-6-3,72.9,58.4,49.1,35.2,24.7,13.1,50,30,14,29.32,29.26,12,1,12,0.87
2013-6-6,76.3,64.0,56.7,36.5,25.0,14.9,44,24,15,29.18,29.09,20,7,20,0.08
2013-6-7,75.4,60.9,53.6,25.5,21.2,14.4,32,23,14,29.18,29.12,21,4,21,0.43
2013-6-8,84.0,64.0,50.7,36.8,26.4,15.7,52,27,14,29.23,29.15,12,1,12,0.00
2013-6-9,83.1,67.0,62.1,46.3,22.8,15.4,49,20,14,29.23,29.06,19,4,19,0.00
2013-6-10,82.8,70.5,60.8,53.9,35.3,23.1,68,33,14,29.15,29.03,15,2,15,0.00
2013-6-11,93.0,76.5,61.3,42.9,33.4,27.0,46,23,12,29.21,29.12,11,0,11,0.00
2013-6-12,93.6,78.1,70.2,58.2,38.8,0.0,63,28,12,29.18,28.85,31,2,31,0.00
2013-6-13,82.8,69.9,62.4,57.8,34.5,18.8,73,30,14,29.32,28.97,24,4,24,0.16
2013-6-14,84.0,65.7,54.7,39.4,27.8,0.0,51,26,14,29.38,29.26,16,2,16,0.00
2013-6-15,65.8,65.4,64.2,32.3,28.0,26.9,30,24,23,29.29,29.29,0,0,0,0.00
2013-6-21,74.7,71.7,68.5,60.6,43.2,33.4,74,38,24,29.47,29.26,22,4,22,0.75
2013-6-22,88.2,74.4,67.3,64.6,43.9,32.7,75,35,15,29.35,29.26,18,3,18,0.20
2013-6-23,93.0,74.5,67.5,63.1,42.2,31.0,68,35,12,29.32,29.23,16,2,16,0.00
2013-6-24,88.5,74.3,67.8,63.4,49.3,28.1,76,48,15,29.38,29.21,36,2,36,0.31
2013-6-25,91.8,77.3,69.4,64.6,44.1,31.0,74,35,12,29.23,29.09,15,2,15,0.31
2013-6-26,86.5,76.1,68.9,63.5,46.2,31.1,76,40,16,29.15,29.00,21,1,21,0.51
2013-6-27,83.3,75.2,71.4,62.5,51.2,36.0,67,46,19,29.12,29.06,12,1,12,0.00
2013-7-7,91.8,81.2,75.6,42.8,35.3,27.2,31,20,12,29.29,29.26,10,0,10,0.00
2013-7-8,93.0,75.7,70.2,61.3,46.0,31.0,70,38,12,29.35,29.26,17,2,20,0.24
2013-7-9,91.0,80.3,74.5,66.6,51.7,35.0,68,41,15,29.32,29.15,17,1,17,0.24
2013-7-10,93.0,79.8,71.4,63.1,45.3,23.8,63,33,12,29.24,29.15,15,2,15,0.00
2013-7-23,82.9,71.5,61.7,61.1,37.1,20.7,79,34,14,29.24,29.03,16,4,45,0.04
2013-7-24,83.1,64.6,57.2,49.3,31.2,18.2,71,32,14,29.32,29.24,17,3,17,0.00
2013-7-25,83.8,65.8,53.1,41.7,30.2,23.1,56,29,14,29.35,29.29,10,0,12,0.00
2013-7-26,75.4,67.7,61.0,45.9,36.1,28.1,50,32,19,29.32,29.18,12,2,16,0.00
2013-7-27,68.7,60.6,56.3,49.7,26.3,14.0,72,30,15,29.20,29.15,16,4,17,0.00
2013-7-28,71.1,59.4,54.5,31.0,14.4,0.0,40,15,14,29.29,29.12,20,4,21,0.00
2013-7-29,84.0,64.0,52.7,39.5,30.2,20.1,58,31,14,29.44,29.29,11,1,11,0.00
2013-7-30,69.1,62.9,59.0,60.5,39.8,31.4,78,44,28,29.44,29.29,10,0,10,0.20
2013-7-31,75.2,70.1,66.6,61.9,46.9,31.4,78,49,21,29.29,29.23,11,0,11,0.12
2013-8-1,81.3,70.0,62.6,58.8,38.6,19.4,80,39,14,29.29,29.23,19,3,19,0.00
2013-8-2,84.0,73.5,64.2,63.3,36.8,27.6,77,31,14,29.26,29.18,16,3,16,1.14
2013-8-3,84.0,70.4,62.2,62.1,38.3,0.0,79,38,14,29.41,29.26,15,2,15,0.04
2013-8-4,81.7,65.6,58.8,45.8,32.7,20.6,61,32,14,29.44,29.38,13,1,13,0.00
2013-8-5,74.8,66.8,58.8,47.9,35.6,27.2,49,33,19,29.41,29.18,11,0,11,0.12
2013-8-6,87.6,75.1,65.5,61.5,44.7,29.6,76,38,16,29.21,29.12,10,0,10,0.08
2013-8-7,89.4,76.6,69.6,64.7,47.9,31.8,77,42,15,29.21,29.09,20,1,20,0.87
2013-8-8,79.3,71.7,64.9,53.9,34.9,23.5,67,29,15,29.29,29.21,17,2,17,0.08
2013-8-9,84.0,69.4,58.8,44.7,33.0,26.4,52,29,14,29.29,29.26,10,0,10,0.00
2013-8-13,75.6,64.6,55.0,34.7,25.4,0.0,46,24,14,29.41,29.29,21,5,21,0.00
2013-8-14,75.6,58.4,51.6,46.3,32.3,0.0,67,41,14,29.44,29.41,16,0,16,0.00
2013-8-15,79.5,62.3,53.1,44.4,30.9,18.5,56,34,14,29.44,29.38,10,0,10,0.00
2013-8-16,84.0,66.2,54.3,49.5,34.9,21.2,66,36,14,29.44,29.38,14,0,14,0.00
2013-8-17,84.0,66.4,55.8,42.1,31.1,21.0,58,29,14,29.47,29.41,15,1,15,0.00
2013-8-18,84.0,68.0,55.6,49.2,33.3,24.4,66,32,14,29.44,29.38,15,1,15,0.00
2013-8-19,91.8,70.5,57.9,51.3,36.1,26.0,67,33,12,29.41,29.35,10,0,10,0.00
2013-8-20,93.0,76.1,62.6,54.1,38.0,27.0,66,31,12,29.41,29.32,11,1,11,0.00
2013-10-30,65.7,58.3,51.4,59.0,41.3,29.9,79,55,35,29.35,29.03,12,0,12,1.10
2013-10-31,66.2,60.5,48.4,59.3,48.1,23.3,79,65,36,29.03,28.56,134,5,134,1.02
2013-11-1,51.8,47.1,44.4,28.1,18.2,9.7,52,33,18,29.00,28.70,25,7,25,0.00
2013-11-2,46.6,41.5,39.2,33.8,27.3,0.0,77,60,20,29.29,28.97,20,3,20,0.00
2013-11-5,55.9,55.1,54.0,42.2,33.7,27.6,61,44,36,29.44,29.18,22,12,22,0.12
2013-11-6,60.1,48.2,34.2,52.5,28.1,-0.7,76,48,22,29.41,29.06,30,8,30,0.43
2013-11-7,45.1,33.9,30.2,11.6,6.2,0.2,41,32,20,29.50,29.41,26,4,26,0.00
2013-11-8,53.4,37.7,27.3,11.4,8.6,5.1,43,32,18,29.56,29.26,22,6,22,0.00
2013-11-27,19.8,17.5,16.5,-10.5,-13.4,-14.3,26,24,22,29.47,29.44,0,0,0,0.00
2013-11-28,39.0,24.8,15.3,0.1,-7.5,-12.9,34,20,19,29.68,29.41,18,7,18,0.00
2013-11-29,39.9,24.6,11.5,0.1,-6.0,-9.9,37,27,18,29.83,29.59,16,4,16,0.00
2013-11-30,55.9,35.2,29.8,12.0,-0.8,-6.3,36,21,17,29.59,29.26,17,7,17,0.00
2013-12-1,48.4,34.0,27.0,9.8,5.6,0.0,45,28,19,29.32,29.18,12,2,12,0.00
2013-12-2,43.3,35.7,32.7,13.2,8.5,0.0,38,29,20,29.18,28.94,12,5,63,0.00
2013-12-3,51.8,43.9,37.0,44.0,27.0,13.2,75,53,37,28.94,28.88,16,6,16,0.00
2013-12-4,58.1,51.1,35.4,51.1,36.4,0.0,79,59,28,29.00,28.73,30,9,30,0.00
2013-12-5,35.4,27.7,26.6,9.0,0.0,-5.5,34,12,26,29.47,29.00,29,13,29,0.00
2013-12-9,21.7,10.7,-1.3,0.0,-12.5,-29.3,34,21,22,29.47,29.18,26,11,26,0.00
2013-12-10,25.7,9.6,-6.2,0.0,-19.3,-33.5,24,23,21,29.53,29.23,34,8,34,0.00
2013-12-11,21.7,11.0,-2.2,0.0,-18.4,-30.3,24,23,22,29.80,29.47,22,6,22,0.00
2013-12-12,26.6,3.6,-9.6,0.0,-21.5,-36.5,34,21,21,29.77,29.41,25,3,25,0.00
2013-12-13,37.9,21.3,10.9,17.8,-5.6,-11.9,56,30,19,29.41,29.26,17,4,17,0.00
2013-12-14,31.5,28.7,16.2,18.0,10.4,-5.6,57,47,30,29.26,25.25,21,9,21,0.00
2013-12-15,16.3,13.4,7.9,-4.3,-14.5,-19.1,39,27,24,29.35,29.21,28,8,28,0.00
2013-12-16,21.2,15.6,10.4,0.0,-13.9,-19.4,25,23,22,29.35,29.23,12,5,12,0.00
2013-12-17,35.2,21.7,18.5,0.2,-9.9,-13.1,25,24,20,29.35,29.20,24,10,26,0.00
2013-12-18,33.1,19.7,7.5,-0.9,-11.6,-19.5,27,24,20,29.38,29.09,29,9,29,0.00
2013-12-19,45.5,37.9,34.5,14.9,5.8,0.0,39,19,20,29.12,28.97,12,2,12,0.04
2013-12-20,40.1,38.3,37.4,31.5,26.4,0.0,73,63,67,29.03,28.94,16,4,16,0.08
2013-12-21,0.0,0.0,0.0,0.0,0.0,0.0,0,0,100,29.09,28.82,20,1,20,0.24
2013-12-22,33.1,17.3,0.0,12.0,3.7,0.0,41,20,31,29.21,28.82,21,7,21,0.08
2013-12-23,28.9,28.9,28.9,2.1,2.1,2.1,31,31,31,29.21,29.21,6,6,8,0.08
2013-12-24,28.9,28.9,28.9,2.1,2.1,2.1,31,31,31,29.21,29.21,6,6,8,0.08
2013-12-25,28.9,28.6,25.7,2.1,2.0,-0.1,34,31,31,29.35,29.21,22,7,22,0.08
2013-12-26,37.6,26.4,13.1,6.2,-5.5,-14.6,34,25,19,29.53,25.01,26,8,26,0.08
2013-12-27,46.0,32.7,26.6,9.3,5.0,0.0,32,19,20,29.53,29.32,16,6,16,0.08
2013-12-28,51.8,38.6,31.5,10.9,7.8,2.6,40,29,18,29.32,29.09,63,7,63,0.08
2013-12-29,36.1,27.1,9.0,12.8,1.1,-18.4,45,32,24,29.41,29.00,30,11,30,0.08
2013-12-30,17.8,8.2,1.9,0.0,-17.6,-24.3,27,23,23,29.56,25.01,20,4,20,0.08
2013-12-31,11.8,10.5,9.0,-18.0,-19.2,-20.6,24,24,24,29.38,29.38,0,0,0,0.00